Regional Weather Roundup
Issued by NWS

Home | Current Version | Previous Version | Text Only | Print | Product List | Glossary Off
Versions: 1 2 3 4 5 6 7 8 9 10 11 12 13 14 15 16 17 18 19 20 21 22 23 24 25 26 27 28 29 30 31 32 33 34 35 36 37 38 39 40 41 42 43 44 45 46 47 48 49 50

000
ASUS43 KLMK 040410
RWRKY
KENTUCKY REGIONAL WEATHER ROUNDUP
NATIONAL WEATHER SERVICE LOUISVILLE KY
1100 PM EST TUE MAR 03 2015

NOTE "FAIR" INDICATES FEW OR NO CLOUDS BELOW 12,000 FEET
WITH NO SIGNIFICANT WEATHER AND/OR OBSTRUCTIONS TO VISIBILITY.

KYZ001>023-026-027-061>063-070>075-040500-
WESTERN AND SOUTH CENTRAL KENTUCKY

CITY           SKY/WX    TMP DP  RH WIND       PRES   REMARKS
PADUCAH        HVY RAIN  48  47  96 NW7       29.90R FOG
HENDERSON      CLOUDY    45  43  93 NW9       29.89F
OWENSBORO      HVY RAIN  48  48 100 N12       29.89F FOG
HOPKINSVILLE   DRIZZLE   61  59  94 SW13      29.85S
BOWLING GREEN  LGT RAIN  61  58  90 SW14G20   29.86F
GLASGOW        RAIN      60  60 100 SW14G23   29.86F
$$

KYZ024-025-028>034-038-045-046-053-040500-
NORTH CENTRAL KENTUCKY

CITY           SKY/WX    TMP DP  RH WIND       PRES   REMARKS
LOUISVILLE/SDF RAIN      50  48  93 NW6       29.88R FOG
LOUISVILLE/LOU HVY RAIN  49  47  93 W6        29.88R FOG
FORT KNOX      RAIN      50  48  93 W10       29.86R FOG
$$

KYZ035>037-039>044-047>052-055>060-089>105-040500-
NORTHEAST KENTUCKY

CITY           SKY/WX    TMP DP  RH WIND       PRES   REMARKS
LEXINGTON      CLOUDY    51  50  96 NW9       29.87R
COVINGTON      RAIN      43  39  87 NW9       29.86R FOG
FRANKFORT      LGT RAIN  50  48  93 NW5       29.85S
$$

KYZ054-064>069-076>088-106>120-040500-
SOUTHEAST KENTUCKY

CITY           SKY/WX    TMP DP  RH WIND       PRES   REMARKS
JACKSON        LGT RAIN  56  55  97 VRB7      29.87F VSB 3/4
LONDON         LGT RAIN  58  53  84 S12       29.89F
SOMERSET       RAIN      54  54 100 S5        29.91R
MIDDLESBORO    CLOUDY    49  49 100 SW3       29.95F FOG
MONTICELLO     FOG       59  59 100 S9        29.92S VSB 1
$$




USA.gov is the U.S. government's official web portal to all federal, state and local government web resources and services.